STARLINK-6116, 56911

Orbit data source: Space-Track

STARLINK-6116, 56911 is a payload satellite owned by SpaceX/Seattle (US) in LEO that was launched on Mon, 12 Jun 2023 UTC via an FALCON 9 launch vehicle from the Air Force Eastern Test Range (AFETR). Payload-class satellites include a variety of spacecraft equipped with specific instruments for various scientific and technological missions. These include communications satellites like Starlink; space stations such as the ISS; scientific satellites like the Hubble; Earth observation satellites from companies like Planet Labs, Umbra, and HawkEye 360; GPS; miniature CubeSats for education and research; and military/defense satellites.

Loading next visibility...
Identifier
56911, 2023-083AM
Orbit
LEO
Country
Flag of USUS
Related business
Manufacturer
SpaceX/Seattle
Mission
Operational Commercial Communications
Bus & Motor
STARLINK, Unknown motor
Mass
305 kg wet, ~290 kg dry
Launch date (UTC)
2023-06-12 (3 years ago)
Launch vehicle
FALCON 9
Launch site
Air Force Eastern Test Range (AFETR)
Object type
Payload
Rocket body
Debris
Shape & HBR
Box + 1 Pan, 10.1 m
Radar Cross Section
11.087 m², Large (>1 m²)

Expand to show TLE details & history
Last TLE update: 2 days ago

TLE from 2 days ago
0 STARLINK-6116
1 56911U 23083AM  26171.17155199  .00000313  00000-0  20893-4 0  9996
2 56911  43.0019 211.7287 0001944 284.1629  75.9007 15.27575079167470
Epoch: 2026-06-20T04:07Z
TLE epoch observation values (Epoch: 2026-06-20T04:07:02.091Z)
Latitude
-0.00001°
Longitude
-118.42003°
Altitude
482.515 km
Speed
7.626 km/s
True Right ascension
14h 06m 54s
True Declination
0° 00' 00"
Sunlit
Object was in full shadow at epoch
Visualization orbit readout
Latitude
Unknown
Longitude
Unknown
Altitude
Unknown
Speed
Unknown
Apparent Right ascension
Unknown
Apparent Declination
Unknown
Sunlit
N/A
Visualization observer readout
Local Sidereal Time
21:32:08
Azimuth
Unknown
Elevation
Unknown
Doppler factor
Unknown
Orbital elements
Apogee altitude
486.343 km
Perigee altitude
483.674 km
Semi-major axis
6,863.146 km
Eccentricity
0.00019
Inclination
43.0019°
RAAN
211.7287°
Arg. of periapsis
284.1629°
True anomaly
75.92231°
Mean anomaly
75.9007°
Eccentric anomaly
75.9115°
Mean motion
3.81732 °/min
Orbital period
94.31 mins
BSTAR
0.000020893
Loading maneuver chart data...
Computing Atmospheric mass density...
Loading historical data...
Loading historical data...
Loading historical data...
Loading historical data...
Loading historical data...
Loading historical data...
Loading historical data...

Documentation

Showing up to 5 results
|